TimeEDT,TemperatureF,Dew PointF,Humidity,Sea Level PressureIn,VisibilityMPH,Wind Direction,Wind SpeedMPH,Gust SpeedMPH,PrecipitationIn,Events,Conditions,WindDirDegrees,DateUTC
12:15 AM,59.0,48.2,67,30.25,10.0,NE,4.6,-,N/A,,Clear,50,2013-08-17 04:15:00
12:35 AM,59.0,48.2,67,30.25,10.0,East,3.5,-,N/A,,Clear,80,2013-08-17 04:35:00
12:55 AM,57.2,48.2,72,30.26,10.0,Calm,Calm,-,N/A,,Clear,0,2013-08-17 04:55:00
1:15 AM,57.2,48.2,72,30.26,10.0,ENE,3.5,-,N/A,,Clear,70,2013-08-17 05:15:00
1:35 AM,57.2,48.2,72,30.26,10.0,Calm,Calm,-,N/A,,Clear,0,2013-08-17 05:35:00
1:55 AM,57.2,48.2,72,30.26,10.0,ENE,5.8,-,N/A,,Clear,60,2013-08-17 05:55:00
2:15 AM,55.4,48.2,77,30.26,10.0,NE,3.5,-,N/A,,Clear,40,2013-08-17 06:15:00
2:35 AM,57.2,48.2,72,30.26,10.0,Calm,Calm,-,N/A,,Clear,0,2013-08-17 06:35:00
2:55 AM,57.2,50.0,77,30.27,10.0,Calm,Calm,-,N/A,,Clear,0,2013-08-17 06:55:00
3:15 AM,55.4,50.0,82,30.26,10.0,Calm,Calm,-,N/A,,Clear,0,2013-08-17 07:15:00
3:35 AM,55.4,50.0,82,30.27,10.0,Calm,Calm,-,N/A,,Clear,0,2013-08-17 07:35:00
3:55 AM,55.4,50.0,82,30.27,10.0,Calm,Calm,-,N/A,,Clear,0,2013-08-17 07:55:00
4:15 AM,57.2,48.2,72,30.27,10.0,ENE,4.6,-,N/A,,Clear,70,2013-08-17 08:15:00
4:35 AM,57.2,48.2,72,30.27,10.0,East,4.6,-,N/A,,Clear,80,2013-08-17 08:35:00
4:55 AM,57.2,48.2,72,30.27,10.0,Calm,Calm,-,N/A,,Clear,0,2013-08-17 08:55:00
5:15 AM,57.2,48.2,72,30.27,10.0,Calm,Calm,-,N/A,,Clear,0,2013-08-17 09:15:00
5:35 AM,57.2,48.2,72,30.28,10.0,East,3.5,-,N/A,,Clear,90,2013-08-17 09:35:00
5:55 AM,55.4,48.2,77,30.29,10.0,Calm,Calm,-,N/A,,Clear,0,2013-08-17 09:55:00
6:15 AM,57.2,48.2,72,30.29,10.0,Calm,Calm,-,N/A,,Clear,0,2013-08-17 10:15:00
6:35 AM,55.4,48.2,77,30.29,10.0,East,4.6,-,N/A,,Clear,80,2013-08-17 10:35:00
6:55 AM,55.4,48.2,77,30.29,10.0,East,3.5,-,N/A,,Clear,80,2013-08-17 10:55:00
7:15 AM,55.4,48.2,77,30.29,10.0,Calm,Calm,-,N/A,,Clear,0,2013-08-17 11:15:00
7:35 AM,55.4,48.2,77,30.30,10.0,Calm,Calm,-,N/A,,Clear,0,2013-08-17 11:35:00
7:55 AM,59.0,50.0,72,30.30,10.0,East,3.5,-,N/A,,Clear,90,2013-08-17 11:55:00
8:15 AM,60.8,51.8,72,30.30,10.0,ESE,3.5,-,N/A,,Clear,110,2013-08-17 12:15:00
8:35 AM,60.8,51.8,72,30.31,10.0,South,3.5,-,N/A,,Clear,170,2013-08-17 12:35:00
8:55 AM,59.0,51.8,77,30.31,10.0,South,3.5,-,N/A,,Clear,180,2013-08-17 12:55:00
9:15 AM,60.8,53.6,77,30.32,10.0,Calm,Calm,-,N/A,,Clear,0,2013-08-17 13:15:00
9:35 AM,62.6,51.8,68,30.32,10.0,SSE,3.5,-,N/A,,Clear,160,2013-08-17 13:35:00
9:55 AM,62.6,53.6,72,30.32,10.0,South,4.6,-,N/A,,Clear,170,2013-08-17 13:55:00
10:15 AM,64.4,53.6,68,30.32,10.0,SSE,4.6,-,N/A,,Clear,160,2013-08-17 14:15:00
10:35 AM,64.4,55.4,73,30.32,10.0,SE,4.6,-,N/A,,Clear,130,2013-08-17 14:35:00
10:55 AM,66.2,55.4,68,30.32,10.0,SE,3.5,-,N/A,,Clear,130,2013-08-17 14:55:00
11:15 AM,66.2,53.6,64,30.32,10.0,East,3.5,-,N/A,,Clear,80,2013-08-17 15:15:00
11:35 AM,68.0,55.4,64,30.31,10.0,Calm,Calm,-,N/A,,Clear,0,2013-08-17 15:35:00
11:55 AM,68.0,53.6,60,30.31,10.0,ENE,5.8,-,N/A,,Clear,70,2013-08-17 15:55:00
12:15 PM,69.8,53.6,56,30.31,10.0,Calm,Calm,-,N/A,,Clear,0,2013-08-17 16:15:00
12:35 PM,69.8,53.6,56,30.31,10.0,South,3.5,-,N/A,,Clear,170,2013-08-17 16:35:00
12:55 PM,71.6,53.6,53,30.30,10.0,SSE,4.6,-,N/A,,Clear,160,2013-08-17 16:55:00
1:15 PM,71.6,53.6,53,30.30,10.0,Calm,Calm,-,N/A,,Partly Cloudy,0,2013-08-17 17:15:00
1:35 PM,71.6,53.6,53,30.30,10.0,East,6.9,-,N/A,,Scattered Clouds,90,2013-08-17 17:35:00
1:55 PM,71.6,53.6,53,30.30,10.0,Calm,Calm,-,N/A,,Clear,0,2013-08-17 17:55:00
2:15 PM,71.6,53.6,53,30.29,10.0,Calm,Calm,-,N/A,,Clear,0,2013-08-17 18:15:00
2:35 PM,71.6,53.6,53,30.29,10.0,East,5.8,-,N/A,,Clear,100,2013-08-17 18:35:00
2:55 PM,71.6,53.6,53,30.28,10.0,SSW,3.5,-,N/A,,Partly Cloudy,210,2013-08-17 18:55:00
3:15 PM,73.4,53.6,50,30.28,10.0,NE,5.8,-,N/A,,Partly Cloudy,50,2013-08-17 19:15:00
3:35 PM,71.6,51.8,50,30.28,10.0,ENE,4.6,-,N/A,,Clear,60,2013-08-17 19:35:00
3:55 PM,71.6,53.6,53,30.28,10.0,Calm,Calm,-,N/A,,Clear,0,2013-08-17 19:55:00
4:15 PM,71.6,53.6,53,30.28,10.0,ESE,3.5,-,N/A,,Scattered Clouds,110,2013-08-17 20:15:00
4:35 PM,73.4,53.6,50,30.27,10.0,ENE,3.5,-,N/A,,Scattered Clouds,60,2013-08-17 20:35:00
4:55 PM,73.4,53.6,50,30.27,10.0,ESE,4.6,-,N/A,,Mostly Cloudy,120,2013-08-17 20:55:00
5:15 PM,73.4,53.6,50,30.27,10.0,ENE,5.8,-,N/A,,Mostly Cloudy,70,2013-08-17 21:15:00
5:35 PM,71.6,53.6,53,30.27,10.0,East,4.6,-,N/A,,Overcast,100,2013-08-17 21:35:00
5:55 PM,71.6,53.6,53,30.27,10.0,ESE,4.6,-,N/A,,Mostly Cloudy,110,2013-08-17 21:55:00
6:15 PM,71.6,55.4,57,30.27,10.0,East,3.5,-,N/A,,Partly Cloudy,80,2013-08-17 22:15:00
6:35 PM,71.6,55.4,57,30.26,10.0,ESE,5.8,-,N/A,,Mostly Cloudy,110,2013-08-17 22:35:00
6:55 PM,71.6,53.6,53,30.26,10.0,ESE,6.9,-,N/A,,Scattered Clouds,120,2013-08-17 22:55:00
7:15 PM,69.8,53.6,56,30.26,10.0,Calm,Calm,-,N/A,,Clear,0,2013-08-17 23:15:00
7:35 PM,68.0,53.6,60,30.26,10.0,Calm,Calm,-,N/A,,Clear,0,2013-08-17 23:35:00
7:55 PM,68.0,51.8,56,30.26,10.0,SE,3.5,-,N/A,,Clear,130,2013-08-17 23:55:00
8:15 PM,66.2,53.6,64,30.26,10.0,ESE,3.5,-,N/A,,Clear,110,2013-08-18 00:15:00
8:35 PM,64.4,51.8,64,30.26,9.0,SSE,3.5,-,N/A,,Clear,160,2013-08-18 00:35:00
8:55 PM,66.2,51.8,60,30.26,10.0,Calm,Calm,-,N/A,,Clear,0,2013-08-18 00:55:00
9:15 PM,66.2,53.6,64,30.27,10.0,Calm,Calm,-,N/A,,Clear,0,2013-08-18 01:15:00
9:35 PM,64.4,53.6,68,30.27,10.0,Calm,Calm,-,N/A,,Clear,0,2013-08-18 01:35:00
9:55 PM,64.4,55.4,73,30.27,10.0,Calm,Calm,-,N/A,,Clear,0,2013-08-18 01:55:00
10:15 PM,64.4,53.6,68,30.27,10.0,SE,3.5,-,N/A,,Clear,130,2013-08-18 02:15:00
10:35 PM,64.4,53.6,68,30.27,10.0,Calm,Calm,-,N/A,,Clear,0,2013-08-18 02:35:00
10:55 PM,64.4,55.4,73,30.28,10.0,Calm,Calm,-,N/A,,Clear,0,2013-08-18 02:55:00
11:15 PM,62.6,53.6,72,30.28,10.0,ESE,3.5,-,N/A,,Clear,120,2013-08-18 03:15:00
11:35 PM,62.6,53.6,72,30.28,10.0,SSE,3.5,-,N/A,,Clear,160,2013-08-18 03:35:00
11:55 PM,62.6,53.6,72,30.27,10.0,SSE,3.5,-,N/A,,Clear,150,2013-08-18 03:55:00